Simultaneous Nadir Overpasses (SNOs) Predictions

Prediction of SNOs between NOAA-19 and TERRA Satellite Orbit:

Table of predicted SNOs for the next 14.0 days since TLE Epoch: 12/18/2016
Index Date (NOAA-19) Time (NOAA-19) Lat,Lon (NOAA-19) SZA (NOAA-19 ) Date (TERRA) Time (TERRA) Lat,Lon (TERRA) SZA (TERRA ) Distance(km) Time Diff (sec)
1 12/19/2016 00:50:47 74.69, 176.36 98.22 12/19/2016 00:51:27 74.68, 176.30 98.22 1.83 40
2 12/19/2016 01:41:47 -74.61, -16.16 81.85 12/19/2016 01:40:56 -74.61, -16.25 81.86 2.54 51
3 12/21/2016 06:24:44 -74.69, -87.06 81.77 12/21/2016 06:25:11 -74.72, -87.06 81.74 3.31 27
4 12/21/2016 07:15:42 74.62, 80.39 98.17 12/21/2016 07:14:38 74.64, 80.40 98.18 2.30 64
5 12/23/2016 11:58:38 74.68, 9.53 98.21 12/23/2016 11:58:54 74.69, 9.45 98.21 2.53 16
6 12/23/2016 12:49:37 -74.50, 177.29 81.96 12/23/2016 12:48:24 -74.57, 176.78 81.93 17.04 73
7 12/25/2016 17:32:37 -74.73, 105.96 81.82 12/25/2016 17:32:38 -74.72, 106.08 81.83 3.66 1
8 12/25/2016 18:23:21 74.05, -84.90 97.58 12/25/2016 18:22:15 74.12, -87.70 97.53 86.02 66
9 12/27/2016 22:15:40 -75.10, 34.17 81.59 12/27/2016 22:16:50 -74.96, 35.63 81.67 44.72 70
10 12/27/2016 23:06:29 74.69,-157.34 98.05 12/27/2016 23:06:21 74.68,-157.44 98.03 3.40 8
11 12/30/2016 03:49:25 74.77, 131.77 97.97 12/30/2016 03:50:36 74.77, 131.71 97.98 1.91 71
12 12/30/2016 04:40:28 -74.70, -60.80 82.09 12/30/2016 04:40:05 -74.70, -60.83 82.10 0.81 23
